Home > Weather > Güstrow > Past weeks

Flag for Germany Weather for the Past 2 Weeks in Güstrow, Mecklenburg-Western Pomerania, Germany

Now
37 °F

Rain. Fog.


Feels Like: 28 °F
Forecast: 32 / 36 °F
Wind: 16 mph from Northeast

Location: Laage

Current Time: Feb 14, 2016 at 6:35:20 PM

Latest Report: Feb 14, 2016 at 5:20 PM


Visibility: 3 mi

Pressure: 29.33 "Hg

Humidity: 87%

Dew point: 34 °F

Location of GüstrowLocation

Historic Weather in Güstrow — Graph

°F

Güstrow Temperature Yesterday

Maximum temperature yesterday: 41 °F (at 12:20 PM)
Minimum temperature yesterday: 28 °F (at 12:20 AM)
Average temperature yesterday: 34 °F

High & Low Weather Summary for the Past Weeks

 TemperatureHumidityPressure
High54 °F (Feb 7, 1:20 PM)100% (Jan 30, 5:59 PM)30.18 "Hg (Jan 30, 5:59 PM)
Low28 °F (Feb 13, 12:20 AM)57% (Feb 2, 4:20 PM)28.77 "Hg (Feb 10, 12:20 AM)
Average40 °F86%29.56 "Hg
* Reported Jan 30 5:20 PM — Feb 14 5:20 PM, Güstrow, Weather by CustomWeather, © 2016

Note: Actual official high and low records may vary slightly from our data, if they occured in-between our weather recording intervals... More about our weather records

Advertising

Güstrow Weather History for the Previous 24 Hours

 ConditionsComfort  
Time TempWeatherWind HumidityBarometerVisibility
5:20 PM
Sun, Feb 14
37 °FRain. Fog.16 mph87%29.33 "Hg3 mi
4:20 PM37 °FLight rain. Broken clouds.16 mph87%29.30 "HgN/A
3:20 PM37 °FLight rain. Partly sunny.16 mph81%29.30 "HgN/A
2:20 PM39 °FPartly sunny.15 mph75%29.27 "HgN/A
1:20 PM37 °FLight rain. Overcast.16 mph81%29.30 "HgN/A
12:20 PM37 °FLight rain. Partly sunny.16 mph81%29.27 "HgN/A
11:20 AM37 °FLight rain. Partly sunny.20 mph81%29.27 "HgN/A
10:20 AM37 °FPartly sunny.17 mph81%29.27 "HgN/A
9:20 AM36 °FBroken clouds.15 mph93%29.27 "Hg4 mi
8:20 AM34 °FPartly sunny.15 mph93%29.24 "Hg4 mi
7:20 AM34 °FPartly cloudy.17 mph87%29.24 "Hg4 mi
6:20 AM32 °FPassing clouds.17 mph93%29.24 "Hg4 mi
5:20 AM32 °FPassing clouds.10 mph93%29.27 "Hg4 mi
4:50 AM32 °FPassing clouds.14 mph93%29.27 "Hg4 mi
4:20 AM32 °FPassing clouds.14 mph93%29.27 "Hg4 mi
3:20 AM32 °FIce fog.17 mph93%29.27 "Hg2 mi
2:20 AM32 °FIce fog.14 mph93%29.30 "Hg2 mi
2:01 AM32 °FIce fog.16 mph93%29.30 "Hg2 mi
1:20 AM32 °FIce fog.15 mph93%29.30 "Hg2 mi
12:20 AM32 °FIce fog.15 mph93%29.33 "Hg2 mi
11:49 PM
Sat, Feb 13
32 °FIce fog.14 mph93%29.33 "Hg2 mi
11:20 PM32 °FIce fog.12 mph93%29.33 "Hg1 mi
10:20 PM32 °FIce fog.9 mph93%29.30 "Hg2 mi
9:20 PM32 °FPassing clouds.8 mph93%29.33 "Hg4 mi
8:20 PM32 °FPassing clouds.8 mph100%29.33 "Hg5 mi
7:20 PM34 °FPassing clouds.9 mph93%29.36 "Hg5 mi
6:20 PM36 °FPassing clouds.8 mph87%29.36 "HgN/A
Weather by CustomWeather, © 2016

See weather overviewHow to use our weather pages